Location: Castillon
(43.1358°N, 0.8654°E)
Time: 18:02:05
(UTC+00:00)

MOS 1 Rocket - Pass Details

Date: 24 January 2021
Orbit: 614 x 830 km, 97.4° (Epoch: 28 February)

Event Time Altitude Azimuth Distance (km) Brightness Sun altitude
Rises 18:40:23 0° 6° (N) 2,905 6.4 -18.5°
Reaches altitude 10° 18:42:37 10° 1° (N) 1,986 5.6 -18.9°
Maximum altitude 18:46:45 48° 287° (WNW) 803 4.0 -19.7°
Drops below altitude 10° 18:50:53 10° 213° (SSW) 1,985 6.2 -20.4°
Sets 18:53:07 0° 208° (SSW) 2,903 7.0 -20.8°
